Lid_Strength_Index
-1 -1 -1 -2 -1 -1 -1 -1 -1 -1 -1 -0 -1 -1 0 1 2 4 6 4 3 1 3 5 7 8 8 9 7 7 10 12 11 10 10 8 7 6 6 6 6 5 5 4 2
-1 -1 -1 -1 -2 -1 -1 -1 -1 -1 -1 -1 -0 -1 0 1 4 5 2 0 -0 1 5 5 8 9 10 9 9 10 11 10 8 8 9 8 9 9 7 6 7 6 4 3 3
-1 -1 -1 -1 -1 -1 -1 -1 -1 -1 -1 -1 -1 0 0 1 5 6 0 0 -0 1 4 6 7 9 11 10 9 10 11 8 9 10 9 9 9 6 7 8 6 6 6 4 4
-1 -1 -1 -1 -1 -1 -1 -1 -1 -1 -1 -1 -1 0 0 2 11 4 1 0 0 4 6 7 8 11 12 12 10 12 10 10 9 10 10 11 10 7 7 7 5 6 4 4 4
-1 -1 -1 -1 -1 -1 -1 -1 -1 -1 -1 -1 -1 -1 2 5 5 3 2 1 2 3 6 8 9 10 12 11 11 12 11 10 10 11 11 10 11 10 9 6 6 6 4 4 4
-1 -1 -1 -1 -1 -1 -1 -1 -1 -1 -1 -1 -1 -1 3 9 1 2 3 3 4 4 6 7 8 7 9 10 10 10 10 11 11 11 11 12 12 11 9 7 7 6 5 4 4
-1 -1 -1 -1 -1 -1 -1 -1 -1 -1 -1 -0 -1 0 4 6 1 2 3 4 5 5 8 6 5 8 8 10 8 8 11 12 12 11 12 12 13 12 10 9 8 7 6 4 4
-1 -1 -1 -1 -1 -1 -1 -1 -1 -1 -1 -1 -1 1 7 2 1 0 2 4 5 5 6 6 5 7 9 8 11 11 11 13 10 10 12 12 13 10 10 10 9 8 7 5 4
-1 -1 -1 -1 -1 -1 -1 -1 -1 -1 -1 -1 2 3 8 1 3 1 1 4 5 6 6 5 5 8 9 12 13 12 14 13 11 10 11 13 12 9 8 10 11 9 8 6 5
-1 -1 -1 -1 -1 -1 -1 -0 -1 1 1 1 2 6 5 6 4 3 2 3 7 7 8 8 9 11 12 12 17 15 14 13 12 10 10 13 13 9 11 11 11 10 9 7 5
-1 -1 -1 -1 -1 -1 -0 1 4 5 4 7 6 7 6 3 3 4 3 4 6 9 13 10 13 14 13 11 10 11 12 13 11 10 12 12 11 10 9 12 12 12 12 9 6
-1 -1 -1 -1 -1 -1 0 4 4 3 9 5 6 6 6 4 7 6 2 7 8 12 11 13 15 11 10 9 10 11 13 13 10 12 14 13 13 11 10 9 9 11 11 11 10
-1 -1 -1 -1 -1 0 2 3 1 1 8 7 5 7 7 5 7 7 4 6 9 11 13 15 13 10 11 10 12 12 12 12 13 13 14 15 15 13 11 10 9 9 9 9 10
-1 -1 -1 -1 2 2 3 1 1 2 12 11 9 7 7 6 9 5 4 6 8 11 12 13 11 11 11 12 11 14 10 11 12 14 16 14 18 13 11 11 11 10 9 9 9
-0 -1 -1 -1 3 4 2 1 1 4 20 9 9 4 7 8 9 8 5 7 10 10 10 13 11 12 13 12 10 12 10 11 12 14 15 15 19 16 12 13 12 11 10 9 8
-0 -1 -1 1 1 1 0 1 3 13 19 13 9 10 10 8 9 8 7 7 7 9 9 10 10 9 10 9 10 10 11 12 14 15 18 15 15 16 13 12 12 11 10 10 9
-0 -0 1 2 4 0 1 4 14 19 11 13 13 10 10 11 10 10 11 11 13 15 15 12 12 9 9 11 10 12 15 20 20 19 19 15 15 14 11 10 11 10 10 11 9
-0 0 1 1 0 1 3 10 19 16 13 11 11 11 13 11 11 11 12 14 10 11 14 16 17 12 11 11 12 13 13 18 22 21 19 18 19 16 11 9 9 10 11 11 12
-0 2 3 2 1 1 7 17 19 13 11 12 12 14 14 12 12 12 12 13 11 10 14 16 16 11 11 9 10 13 14 11 18 22 20 18 16 13 11 12 12 12 12 12 11
3 5 5 2 1 4 11 15 13 9 10 11 14 13 15 14 14 13 14 11 11 9 9 12 16 12 12 11 11 11 10 15 15 22 23 19 18 16 14 13 12 12 12 12 11
4 8 4 2 2 7 14 13 11 9 9 12 13 14 13 14 13 14 13 11 9 9 8 10 14 16 14 14 14 15 14 13 13 15 19 20 18 14 13 12 12 13 12 13 12
6 11 4 3 10 10 13 10 9 10 8 10 11 12 13 14 13 13 14 11 9 8 11 10 14 17 16 14 12 11 13 11 15 18 18 18 18 14 13 12 12 13 12 13 13
8 8 4 4 14 13 10 10 10 10 10 10 11 11 11 13 14 12 11 9 8 9 10 10 15 19 18 14 14 14 13 11 13 15 19 20 17 13 13 13 13 14 13 12 13
8 12 9 8 8 11 12 12 12 9 9 9 11 10 11 13 12 13 12 9 8 8 7 9 13 16 19 17 14 16 14 13 13 18 18 17 17 15 14 14 13 13 13 12 12
9 11 10 13 12 10 10 11 12 12 9 8 11 11 13 14 13 13 11 9 8 8 8 10 15 14 14 14 13 14 14 13 14 13 16 15 15 14 14 13 13 13 13 13 13
10 11 10 11 10 11 10 13 12 11 10 11 12 11 11 13 13 13 11 10 11 9 9 10 15 15 17 14 14 16 14 13 13 13 13 13 15 12 11 14 14 13 13 13 12
7 6 8 10 11 12 12 11 11 9 9 8 9 11 10 11 9 10 8 8 9 10 11 12 14 16 18 15 15 18 16 14 13 12 12 15 13 12 13 12 12 12 12 12 12